Regional Weather Roundup
Issued by NWS Boston, MA

Home | Current Version | Previous Version | Text Only | Print | Product List | Glossary On
Versions: 1 2 3 4 5 6 7 8 9 10 11 12 13 14 15 16 17 18 19 20 21 22 23 24 25 26 27
000
ASUS41 KBOX 201210
RWRBOX

REGIONAL WEATHER ROUNDUP
NATIONAL WEATHER SERVICE TAUNTON MA
700 AM EST MON NOV 20 2017

NOTE:  "FAIR" INDICATES FEW OR NO CLOUDS BELOW 12,000 FEET WITH NO
SIGNIFICANT WEATHER AND/OR OBSTRUCTIONS TO VISIBILITY.

MAZALL-201300-
EASTERN MASSACHUSETTS

CITY           SKY/WX    TMP DP  RH WIND       PRES   REMARKS
BOSTON         PTCLDY    35  19  52 W20G36    29.82R WCI  24
6HR MIN TEMP:  35; 6HR MAX TEMP:  38; 6HR PCP: TRACE;

BEVERLY        PTCLDY    34  24  67 W10       29.80R WCI  26
LAWRENCE       CLEAR     35  25  66 W10       29.82R WCI  27
BEDFORD        PTCLDY    33  14  45 W13G23    29.82R WCI  24
BLUE HILL      NOT AVBL
NORWOOD        CLEAR     36  18  48 W18G30    29.85R WCI  26
MARSHFIELD     CLEAR     34  21  60 W9G16     29.82R WCI  26
PLYMOUTH       CLEAR     36  21  54 W16G25    29.84R WCI  26
TAUNTON        PTCLDY    36  17  46 W15G22    29.85R WCI  27
NEW BEDFORD    CLEAR     44  17  33 W17G29    29.86R
$$

MAZALL-201300-
CAPE COD AND THE ISLANDS

CITY           SKY/WX    TMP DP  RH WIND       PRES   REMARKS
FALMOUTH       CLEAR     36  21  55 W20       29.85R WCI  25
HYANNIS        CLEAR     36  22  56 W10G17    29.83R WCI  28
CHATHAM        CLEAR     36  23  59 W8G21     29.83R WCI  30
PROVINCETOWN   PTCLDY    37  24  59 W20G31    29.82R WCI  27
NANTUCKET      PTCLDY    38  26  62 W18G26    29.85R WCI  28
MARTHAS VNYRD  PTCLDY    37  21  52 W13       29.86R WCI  29
$$

MAZALL-201300-
CENTRAL AND WESTERN MASSACHUSETTS

CITY           SKY/WX    TMP DP  RH WIND       PRES   REMARKS
WORCESTER      CLEAR     29  12  49 W21G31    29.79R WCI  16
6HR MIN TEMP:  29; 6HR MAX TEMP:  32; 6HR PCP: TRACE;

FITCHBURG      CLEAR     34  19  54 NW9       29.83R WCI  27
ORANGE         PTCLDY    30  16  56 W8        29.85R WCI  22
SPRINGFIELD    MOCLDY    33  17  51 W10       29.88R WCI  25
WESTFIELD      CLOUDY    33  20  58 S5        29.90R WCI  29
NORTH ADAMS    CLOUDY    30  17  58 W16G28    29.88R WCI  19
PITTSFIELD     CLOUDY    28  18  66 W15       29.86R WCI  16
$$

RIZALL-201300-
RHODE ISLAND

CITY           SKY/WX    TMP DP  RH WIND       PRES   REMARKS
PROVIDENCE     PTCLDY    35  16  45 NW16G32   29.89R WCI  25
6HR MIN TEMP:  35; 6HR MAX TEMP:  38;

NEWPORT        CLEAR     35  19  52 NW14G24   29.88R WCI  26
BLOCK ISLAND   MOCLDY    37  20  50 NW15G23   29.91R WCI  28
SMITHFIELD     CLEAR     32  18  56 NW10G18   29.86R WCI  24
WESTERLY       CLEAR     34  23  64 CALM      29.92R
$$

CTZALL-201300-
CONNECTICUT

CITY           SKY/WX    TMP DP  RH WIND       PRES   REMARKS
BRADLEY INTL   MOCLDY    32  21  64 W6        29.91R WCI  26
6HR MIN TEMP:  31; 6HR MAX TEMP:  37; 6HR PCP: TRACE;

HARTFORD       MOCLDY    34  20  56 NW3       29.92R
BRIDGEPORT     PTCLDY    36  21  54 W8        29.95R WCI  30
DANBURY        MOCLDY    35  19  52 W15G23    29.94R WCI  25
GROTON         CLEAR     34  19  54 W7        29.92R WCI  28
NEW HAVEN      PTCLDY    37  19  48 VRB7      29.94R WCI  32
CHESTER        FAIR      32  18  55 W3        29.91R
MERIDEN        PTCLDY    33  18  53 W3        29.93R
WILLIMANTIC    CLOUDY    34  19  54 W5        29.91R WCI  30
OXFORD         PTCLDY    31  19  61 W8        29.91R WCI  23
$$

MEZ002-015-021-024-NHZ003-005-008-011-012-014-VTZ005-008-201300-
NORTHERN NEW ENGLAND

CITY           SKY/WX    TMP DP  RH WIND       PRES   REMARKS
PORTLAND ME    PTCLDY    30  17  58 SW8       29.75R WCI  22
6HR MIN TEMP:  29; 6HR MAX TEMP:  34;

BANGOR ME      PTCLDY    29  16  58 W8        29.65R WCI  21
CONCORD NH     PTCLDY    32  17  54 W12G18    29.78R WCI  23
MANCHESTER NH  PTCLDY    33  17  51 W12G18    29.78R WCI  24
NASHUA NH      PTCLDY    33  19  56 W10G25    29.82R WCI  25
PORTSMOUTH NH  MOCLDY    32  20  61 W7        29.76R WCI  26
JAFFREY NH     CLEAR     30  14  51 W9        29.79R WCI  22
KEENE NH       MOCLDY    31  14  49 W9        29.83R WCI  23
BURLINGTON VT  MOCLDY    27  12  53 W15G26    29.84R WCI  15
MT. WASHINGTON SNOWSHWR   3   3 100 W78G84      N/A  VSB 0   WCI -31
$$

NYZ052-076-201300-
EASTERN NEW YORK

CITY           SKY/WX    TMP DP  RH WIND       PRES   REMARKS
ALBANY         CLOUDY    30  17  58 NW14      29.93R WCI  19
6HR MIN TEMP:  30; 6HR MAX TEMP:  34; 6HR PCP: TRACE;

NEW YORK CITY  FLURRIES  39  27  62 W16G24    29.99R WCI  30
6HR MIN TEMP:  39; 6HR MAX TEMP:  42; 6HR PCP: TRACE;

$$

ANZALL-201300-
MARINE OBSERVATIONS

STATION/POSITION TIME  TEMP    WIND        PRES    VSBY  WAVE
                       AIR SEA DIR/SP/G                  HT/PER
                 (UTC) (F)     (DEG/KT/KT) (MB)    (MI)  (FT/S)
BOSTON BUOY      1150   39 50  280/ 25/ 31 1007.6R         3/ 4
BUZZARDS BAY     1100   38     290/ 28/ 31 1010.8R
NANTUCKET SOUND  1150   40 49  290/ 21/ 27 1009.8R         4/ 5
MASS BAY-STELLWA 1104   39 49  270/ 19/ 23 1007.4R         4/ 5
ISLE OF SHOALS   1100   35     260/ 17/ 20 1007.2R
S OF BLOCK IS    NOT AVBL
$$

......................KEY.........................
  SKY/WX - SKY CONDITION/PRESENT WEATHER
  TMP    - TEMPERATURE IN FAHRENHEIT
  DWPT   - DEWPOINT IN FAHRENHEIT
  RH     - RELATIVE HUMIDITY IN PERCENT
  WIND   - DIRECTION AND SPEED IN MPH
  PRES   - MEAN SEA LEVEL PRESSURE IN INCHES OF HG
  WCI    - WIND CHILL INDEX
  VSB    - VISIBILITY IN MILES
  HX     - HEAT INDEX
  TC     - TEMPERATURE IN CELSIUS
  VRB    - VARIABLE WIND DIRECTION
  N/A    - NOT AVAILABLE




USA.gov is the U.S. government's official web portal to all federal, state and local government web resources and services.